Location: La Fredeussais
(48.1780°N, 1.3980°W)
Time: 03:26:37
(UTC+00:00)

Cosmos 1933 - Pass Details

Date: 09 May 2021
Orbit: 547 x 563 km, 82.5° (Epoch: 13 June)

Event Time Altitude Azimuth Distance (km) Brightness Sun altitude
Exits shadow 20:13:50 - 171° (S) 2,750 6.5 -6.9°
Rises 20:13:53 0° 171° (S) 2,728 6.4 -6.9°
Reaches altitude 10° 20:16:07 10° 164° (SSE) 1,835 5.5 -7.2°
Maximum altitude 20:19:56 43° 93° (E) 793 3.8 -7.7°
Drops below altitude 10° 20:23:46 10° 22° (NNE) 1,841 6.2 -8.2°
Sets 20:26:01 0° 16° (NNE) 2,738 7.2 -8.5°
